WC1Z Weather Reports


Display with metric or nautical units.
time (UTC)temp
F
wind
direction
speed
MPH
gust
MPH
rain 1hr
in
rain 24hr
in
rain mn
in
humidity
%
barometer
mb
20260502170201 66 91 4.0 7.0 0.00 0.00 0.00 55 1021.9
20260502164200 66 69 7.0 9.0 0.00 0.00 0.00 58 1021.8
20260502163700 66 103 5.0 8.0 0.00 0.00 0.00 59 1021.9
20260502163200 65 61 4.0 7.0 0.00 0.00 0.00 64 1021.8
20260502162701 65 27 2.0 4.0 0.00 0.00 0.00 60 1021.8
20260502162200 65 72 4.0 6.0 0.00 0.00 0.00 63 1021.9
20260502161700 65 29 2.0 6.0 0.00 0.00 0.00 65 1021.8
20260502161200 64 46 5.0 7.0 0.00 0.00 0.00 64 1021.8
20260502160700 64 27 1.0 3.0 0.00 0.00 0.00 64 1022.0
20260502160200 64 73 4.0 6.0 0.00 0.00 0.00 66 1022.0
20260502152201 62 358 3.0 4.0 0.00 0.00 0.00 71 1021.9
20260502151700 62 55 3.0 5.0 0.00 0.00 0.00 73 1021.8
20260502151202 62 39 4.0 6.0 0.00 0.00 0.00 72 1021.8
20260502150700 62 33 4.0 9.0 0.00 0.00 0.00 74 1021.8
20260502150200 62 5 2.0 6.0 0.00 0.00 0.00 72 1021.8
20260502130700 55 277 1.0 3.0 0.00 0.00 0.00 95 1020.3
20260502130201 55 31 0.0 1.0 0.00 0.00 0.00 95 1020.1
20260502123701 53 314 0.0 1.0 0.00 0.00 0.00 96 1019.5
20260502123200 53 343 1.0 2.0 0.00 0.00 0.00 96 1019.4
20260502122701 53 314 1.0 1.0 0.00 0.00 0.00 96 1019.3
20260502122200 52 255 0.0 0.0 0.00 0.00 0.00 96 1019.2
20260502121700 52 0 0.0 0.0 0.00 0.00 0.00 96 1019.1
20260502121200 52 0 0.0 0.0 0.00 0.00 0.00 96 1019.0
20260502120700 52 208 0.0 1.0 0.00 0.00 0.00 96 1018.9
20260502120200 52 76 0.0 0.0 0.00 0.00 0.00 96 1018.8
20260502115700 52 136 1.0 3.0 0.00 0.00 0.00 96 1018.8
20260502115200 52 0 0.0 0.0 0.00 0.00 0.00 96 1018.7
20260502114700 52 330 0.0 0.0 0.00 0.00 0.00 96 1018.6
20260502114200 52 278 0.0 0.0 0.00 0.00 0.00 96 1018.6
20260502113700 52 266 0.0 1.0 0.00 0.00 0.00 96 1018.5
20260502113200 52 126 0.0 0.0 0.00 0.00 0.00 96 1018.4
20260502112702 52 83 0.0 0.0 0.00 0.00 0.00 96 1018.4
20260502112200 52 307 1.0 1.0 0.00 0.00 0.00 96 1018.4
20260502111700 52 85 1.0 2.0 0.00 0.00 0.00 96 1018.3
20260502111200 52 138 1.0 1.0 0.00 0.00 0.00 96 1018.3
20260502110700 52 300 1.0 3.0 0.00 0.00 0.00 96 1018.2
20260502110200 52 0 0.0 0.0 0.00 0.00 0.00 96 1018.1
20260502105700 52 0 0.0 0.0 0.00 0.00 0.00 96 1017.9
20260502105200 52 208 0.0 0.0 0.00 0.00 0.00 96 1017.9
20260502104700 52 0 0.0 0.0 0.00 0.00 0.00 96 1017.9
20260502104202 52 287 0.0 0.0 0.00 0.00 0.00 95 1017.8
20260502103700 52 117 0.0 1.0 0.00 0.00 0.00 96 1017.7
20260502103201 52 315 1.0 2.0 0.00 0.00 0.00 96 1017.6
20260502102700 52 279 1.0 2.0 0.00 0.00 0.00 96 1017.6
20260502102200 51 347 1.0 2.0 0.00 0.00 0.00 96 1017.6
20260502101700 51 275 2.0 2.0 0.00 0.00 0.00 96 1017.5
20260502101200 51 266 0.0 0.0 0.00 0.00 0.00 95 1017.5
20260502100701 51 251 0.0 1.0 0.00 0.00 0.00 95 1017.4
20260502100200 51 233 0.0 1.0 0.00 0.00 0.00 96 1017.3
20260502091200 52 217 0.0 1.0 0.00 0.00 0.00 95 1017.3
20260502090700 52 0 0.0 0.0 0.00 0.00 0.00 95 1017.4
20260502090200 53 234 0.0 1.0 0.00 0.00 0.00 95 1017.4
20260502071200 54 350 1.0 2.0 0.00 0.00 0.00 95 1017.4
20260502070700 54 359 1.0 2.0 0.00 0.00 0.00 95 1017.3
20260502070201 54 324 1.0 2.0 0.00 0.00 0.00 95 1017.3
20260502065700 54 25 1.0 2.0 0.00 0.00 0.00 95 1017.2
20260502065200 54 5 1.0 2.0 0.00 0.00 0.00 95 1017.2
20260502064700 54 300 1.0 2.0 0.00 0.00 0.00 95 1017.2
20260502064200 54 64 2.0 2.0 0.00 0.00 0.00 95 1017.2
20260502063700 54 347 1.0 2.0 0.00 0.00 0.00 95 1017.3
20260502063200 54 326 0.0 0.0 0.00 0.00 0.00 95 1017.2
20260502062700 54 335 0.0 1.0 0.00 0.00 0.00 95 1017.1
20260502062200 54 0 0.0 1.0 0.00 0.00 0.00 95 1017.1
20260502061200 54 58 2.0 2.0 0.00 0.00 0.00 95 1017.1
20260502060700 54 5 1.0 2.0 0.00 0.00 0.00 95 1017.1
20260502060200 54 310 2.0 3.0 0.00 0.00 0.00 95 1017.1
20260502055700 54 57 2.0 3.0 0.00 0.00 0.00 95 1017.2
20260502055200 54 317 1.0 2.0 0.00 0.00 0.00 95 1017.2
20260502054701 54 354 1.0 1.0 0.00 0.00 0.00 95 1017.1
20260502054200 54 336 1.0 2.0 0.00 0.00 0.00 95 1017.1
20260502053701 54 344 2.0 3.0 0.00 0.00 0.00 95 1017.1
20260502053201 54 300 1.0 2.0 0.00 0.00 0.00 95 1017.2
20260502052701 54 339 2.0 2.0 0.00 0.00 0.00 95 1017.1
20260502052200 54 70 2.0 2.0 0.00 0.00 0.00 95 1017.0
20260502051700 54 108 1.0 1.0 0.00 0.00 0.00 95 1017.0
20260502051200 54 92 2.0 3.0 0.00 0.00 0.00 95 1017.0
20260502050702 54 352 1.0 2.0 0.00 0.00 0.00 95 1017.0
20260502050200 54 1 1.0 1.0 0.00 0.00 0.00 95 1017.1
20260502045700 54 31 1.0 1.0 0.00 0.00 0.98 95 1017.1
20260502045201 54 337 1.0 2.0 0.00 0.00 0.98 95 1017.1
20260502044701 54 352 1.0 1.0 0.00 0.00 0.98 95 1017.0
20260502044200 54 348 2.0 2.0 0.00 0.00 0.98 95 1017.1
20260502043700 54 352 1.0 2.0 0.00 0.00 0.98 95 1017.2
20260502043200 54 319 2.0 4.0 0.00 0.00 0.98 95 1017.3
20260502042700 54 306 0.0 0.0 0.00 0.00 0.98 95 1017.3
20260502042200 54 282 2.0 2.0 0.00 0.00 0.98 95 1017.3
20260502041700 54 48 1.0 1.0 0.00 0.00 0.98 95 1017.2
20260502041200 54 346 1.0 2.0 0.00 0.00 0.98 95 1017.1
20260502040700 54 341 0.0 0.0 0.00 0.00 0.98 95 1017.2
20260502040200 54 192 0.0 1.0 0.00 0.00 0.98 95 1017.3
20260502035700 54 307 0.0 1.0 0.00 0.00 0.98 95 1017.3
20260502035200 54 116 1.0 1.0 0.00 0.00 0.98 95 1016.9
20260502034700 54 245 1.0 1.0 0.00 0.00 0.98 95 1017.1
20260502034200 54 89 1.0 2.0 0.01 0.00 0.98 95 1017.1
20260502033700 54 59 2.0 2.0 0.01 0.00 0.98 95 1017.1
20260502033200 54 79 2.0 2.0 0.01 0.00 0.98 95 1017.4
20260502032700 54 53 1.0 1.0 0.01 0.00 0.98 94 1017.6
20260502032203 54 146 1.0 2.0 0.01 0.00 0.98 94 1017.7
20260502031700 54 93 0.0 1.0 0.01 0.00 0.98 94 1017.7
20260502031200 54 73 2.0 2.0 0.01 0.00 0.98 94 1017.7
20260502030700 54 331 0.0 0.0 0.01 0.00 0.98 94 1017.5
20260502030200 53 331 1.0 2.0 0.01 0.00 0.98 94 1017.1
20260502025700 53 346 0.0 1.0 0.01 0.00 0.98 94 1017.2
20260502025200 53 308 1.0 1.0 0.00 0.00 0.98 94 1017.0
20260502024700 53 2 2.0 2.0 0.00 0.00 0.98 94 1016.7
20260502024200 53 133 1.0 2.0 0.01 0.00 0.98 94 1016.7
20260502023700 53 342 2.0 2.0 0.03 0.00 0.97 94 1016.9
20260502023200 53 328 2.0 2.0 0.03 0.00 0.97 94 1017.0
20260502022700 53 42 2.0 3.0 0.03 0.00 0.97 94 1017.0
20260502022200 53 332 0.0 0.0 0.04 0.00 0.97 94 1017.0
20260502021701 53 11 1.0 1.0 0.04 0.00 0.97 94 1016.9
20260502021200 53 33 1.0 1.0 0.04 0.00 0.97 94 1017.2
20260502020701 53 314 2.0 2.0 0.04 0.00 0.97 94 1017.0
20260502020201 53 30 0.0 0.0 0.04 0.00 0.96 94 1017.0
20260502015700 53 187 2.0 3.0 0.04 0.00 0.96 94 1016.8
20260502015200 53 0 0.0 0.0 0.04 0.00 0.96 94 1016.7
20260502014701 53 167 1.0 2.0 0.03 0.00 0.96 94 1016.5
20260502014200 53 214 1.0 2.0 0.01 0.00 0.96 94 1016.7
20260502013704 53 276 2.0 3.0 0.01 0.00 0.96 94 1016.7
20260502013200 53 296 1.0 2.0 0.01 0.00 0.94 93 1016.5
20260502012700 52 329 1.0 1.0 0.02 0.00 0.94 93 1016.2
20260502012200 52 325 0.0 1.0 0.02 0.00 0.94 93 1015.9
20260502011700 52 104 2.0 2.0 0.02 0.00 0.94 93 1015.7
20260502011200 52 98 3.0 3.0 0.02 0.00 0.94 93 1015.5
20260502010701 52 110 2.0 2.0 0.02 0.00 0.94 93 1015.7
20260502010201 52 117 2.0 2.0 0.03 0.00 0.94 93 1015.7
20260502005700 52 65 1.0 1.0 0.03 0.00 0.94 93 1015.8
20260502005200 52 134 0.0 1.0 0.03 0.00 0.94 92 1015.5
20260502004700 52 104 2.0 4.0 0.03 0.00 0.94 92 1015.5
20260502004200 52 94 5.0 6.0 0.03 0.00 0.94 92 1015.3
20260502003700 52 87 4.0 4.0 0.03 0.00 0.94 92 1015.2
20260502003202 52 96 3.0 4.0 0.05 0.00 0.94 91 1015.4
20260502002701 52 87 5.0 9.0 0.05 0.00 0.93 91 1015.2
20260502002200 52 62 7.0 8.0 0.05 0.00 0.94 91 1015.1
20260502001701 52 79 5.0 9.0 0.05 0.00 0.94 91 1014.9
20260502001200 52 90 7.0 11.0 0.05 0.00 0.94 92 1015.0
20260502000700 52 69 6.0 9.0 0.04 0.00 0.93 91 1015.0
20260502000200 52 73 6.0 8.0 0.04 0.00 0.93 92 1015.0
20260501235700 52 74 7.0 10.0 0.04 0.00 0.93 92 1015.1
20260501235200 53 81 5.0 7.0 0.05 0.00 0.92 93 1015.1
20260501234700 53 73 5.0 8.0 0.05 0.00 0.92 93 1014.8
20260501234159 53 81 6.0 8.0 0.05 0.00 0.92 93 1014.8
20260501233700 53 110 3.0 4.0 0.06 0.00 0.91 93 1015.0
20260501233200 53 90 5.0 6.0 0.06 0.00 0.91 93 1015.1
20260501232700 53 89 4.0 6.0 0.06 0.00 0.91 93 1015.0
20260501232203 53 92 4.0 4.0 0.07 0.00 0.91 93 1015.3
20260501231700 52 95 5.0 9.0 0.08 0.00 0.90 92 1015.6
20260501231200 52 70 6.0 8.0 0.08 0.00 0.90 92 1015.5
20260501230700 52 99 5.0 7.0 0.09 0.00 0.90 92 1015.3
20260501230200 53 85 5.0 8.0 0.09 0.00 0.90 93 1015.2
20260501225700 53 46 6.0 8.0 0.09 0.00 0.90 93 1014.8
20260501225200 53 81 5.0 6.0 0.08 0.00 0.89 93 1014.6
20260501224700 53 74 5.0 8.0 0.08 0.00 0.88 93 1014.7
20260501224201 53 54 7.0 11.0 0.08 0.00 0.87 93 1014.8
20260501223700 53 56 4.0 6.0 0.08 0.00 0.87 94 1015.0
20260501223201 53 82 4.0 6.0 0.07 0.00 0.86 93 1015.1
20260501222701 53 109 1.0 3.0 0.07 0.00 0.86 93 1015.2
20260501222200 54 40 3.0 4.0 0.07 0.00 0.85 93 1015.1
20260501221701 54 68 4.0 4.0 0.06 0.00 0.84 93 1014.7
20260501221200 54 76 3.0 5.0 0.06 0.00 0.83 93 1014.7
20260501220700 54 27 2.0 3.0 0.06 0.00 0.82 93 1015.0
20260501220201 54 106 3.0 5.0 0.06 0.00 0.81 93 1015.0
20260501215700 54 81 4.0 5.0 0.06 0.00 0.80 93 1014.7
20260501215200 54 110 2.0 3.0 0.05 0.00 0.80 93 1014.6
20260501214700 54 70 2.0 2.0 0.05 0.00 0.79 93 1014.6
20260501214201 54 136 2.0 4.0 0.05 0.00 0.79 92 1014.5
20260501213700 54 65 3.0 6.0 0.04 0.00 0.78 92 1014.5
20260501213200 55 54 2.0 3.0 0.03 0.00 0.78 92 1014.6
20260501212700 55 54 2.0 3.0 0.03 0.00 0.77 91 1014.6
20260501212200 55 45 2.0 3.0 0.01 0.00 0.77 91 1014.6
20260501211700 55 25 2.0 2.0 0.00 0.00 0.77 91 1014.5
20260501211200 55 281 1.0 2.0 0.00 0.00 0.75 91 1014.5
20260501210701 55 62 1.0 2.0 0.00 0.00 0.75 90 1014.4
20260501210200 55 119 3.0 3.0 0.00 0.00 0.74 90 1014.2
20260501205700 55 78 5.0 9.0 0.00 0.00 0.73 90 1014.1
20260501205201 55 83 6.0 11.0 0.00 0.00 0.73 89 1014.0
20260501204700 55 0 5.0 5.0 0.00 0.00 0.73 89 1014.0
20260501204200 55 64 2.0 4.0 0.00 0.00 0.73 89 1013.8
20260501203701 55 112 3.0 5.0 0.00 0.00 0.73 89 1013.5
20260501203201 55 72 6.0 9.0 0.00 0.00 0.73 89 1013.6
20260501202700 55 42 4.0 7.0 0.00 0.00 0.73 89 1013.4
20260501202200 55 84 2.0 3.0 0.01 0.00 0.73 89 1013.3
20260501201702 55 100 3.0 8.0 0.01 0.00 0.73 89 1012.9
20260501201200 55 95 7.0 9.0 0.01 0.00 0.73 89 1012.7
20260501200700 54 74 9.0 11.0 0.01 0.00 0.73 88 1012.7
20260501200200 54 86 9.0 12.0 0.01 0.00 0.75 88 1012.6
20260501195701 55 93 9.0 16.0 0.01 0.00 0.75 89 1012.5
20260501195208 55 68 6.0 8.0 0.01 0.00 0.75 91 1012.2
20260501194700 55 94 7.0 10.0 0.01 0.00 0.75 91 1012.0
20260501194202 54 85 7.0 10.0 0.02 0.00 0.75 92 1012.1
20260501193700 54 71 5.0 8.0 0.02 0.00 0.75 92 1012.5
20260501193201 54 81 6.0 15.0 0.02 0.00 0.75 93 1012.5
20260501192701 54 76 8.0 11.0 0.04 0.00 0.75 93 1012.8
20260501192201 54 101 6.0 9.0 0.04 0.00 0.75 94 1013.0
20260501191700 54 60 6.0 11.0 0.05 0.00 0.75 94 1013.3
20260501191200 53 78 7.0 9.0 0.06 0.00 0.75 94 1013.5
20260501190700 53 87 9.0 14.0 0.06 0.00 0.75 94 1013.7
20260501190200 53 71 8.0 11.0 0.06 0.00 0.76 94 1014.2
20260501185701 53 73 9.0 13.0 0.06 0.00 0.76 94 1014.3
20260501185200 53 84 6.0 9.0 0.05 0.00 0.76 94 1014.2
20260501184700 53 78 6.0 12.0 0.05 0.00 0.75 94 1014.3
20260501184202 53 87 6.0 10.0 0.05 0.00 0.75 94 1014.6
20260501183701 53 82 6.0 8.0 0.05 0.00 0.75 94 1015.0
20260501183200 53 88 4.0 6.0 0.05 0.00 0.74 94 1015.1
20260501182701 53 66 5.0 8.0 0.06 0.00 0.73 94 1015.2
20260501182201 53 90 9.0 12.0 0.06 0.00 0.73 94 1015.1
20260501181700 53 70 6.0 10.0 0.06 0.00 0.72 94 1015.1
20260501181201 53 76 7.0 12.0 0.06 0.00 0.72 94 1015.3
20260501180701 53 52 4.0 9.0 0.08 0.00 0.71 94 1015.5
20260501180201 53 55 6.0 8.0 0.08 0.00 0.72 94 1015.6
20260501175700 53 88 5.0 7.0 0.10 0.00 0.71 94 1015.6
20260501175200 53 81 9.0 11.0 0.10 0.00 0.71 94 1015.5
20260501174700 54 56 6.0 11.0 0.10 0.00 0.70 94 1015.8
20260501174200 54 62 4.0 8.0 0.12 0.00 0.70 95 1016.0
20260501173700 54 64 6.0 10.0 0.12 0.00 0.70 95 1016.1
20260501173201 54 78 6.0 10.0 0.12 0.00 0.69 95 1016.2
20260501172700 54 48 6.0 10.0 0.12 0.00 0.69 95 1016.2
20260501172200 54 72 5.0 8.0 0.12 0.00 0.69 95 1016.0
20260501171700 55 68 5.0 7.0 0.12 0.00 0.69 95 1016.3
20260501171201 55 65 4.0 6.0 0.13 0.00 0.68 95 1016.6
20260501170701 55 66 3.0 5.0 0.11 0.00 0.66 95 1016.8